Find Starlink 34611

NORAD ID: 64918 Int'l Des: 2025-157 Owner: SPXS Country: US Constellation: starlink operational
LEOCIRCULAR

Current View

Loading 3D Globe...

About Starlink 34611

Starlink 34611 (NORAD 64918) is a starlink constellation satellite (v2 mini) launched Jul 26, 2025 by SPXS of US. It operates in LEO, CIRCULAR orbit with a mass of 575.00 kg.

Upcoming Passes

Passes for default location (London). Set your location on the main map for personalized predictions.

Altitude History

Loading altitude history...

Two-Line Element Set

1 64918U 25157Q 26263.99211446 .00010545 00000-0 32278-3 0 9993
2 64918 53.1592 155.0967 0001323 101.7305 258.3846 15.34402023 66073
Epoch: Sep 20, 2026 • Age: 15 hours

Current Status

Altitude 476.8 km
Apogee / Perigee N/A
Velocity 7.63 km/s
Sub-Earth Point -40.94°S, 148.45°E
Launch Date Jul 26, 2025
Age 1.1 years
Type internet

Technical Details

Classification Payload
Mass 575.00 kg
Dry Mass 530.00 kg
Length 0.30 m
Span 29.00 m
Shape ? Box + pan
Manufacturer SPXS
Bus Type Starlink V2MO
Phase Status In Orbit
Owner/State SPXS/US

Most Searched